{"data":{"norad_id":64598,"intl_designator":"2025-137E","name":"STARLINK-34463","alt_names":[],"object_type":"PAYLOAD","status":"ACTIVE","operator":null,"country":"US","launch_date":"2025-06-25","launch_site_code":"AFETR","launch_vehicle":null,"mission":null,"orbit_class":"UNKNOWN","rcs_meters":null,"size_class":null,"mass_kg":null,"dimensions":null,"purposes":["comms"],"wikipedia_slug":null,"has_3d_model":false,"image_url":null,"decayed_at":null,"tle_current":{"epoch":"2026-09-20T23:03:08.850240Z","epoch_age_seconds":91865,"freshness":"FRESH","line1":"1 64598U 25137E   26263.96051910  .00020398  00000+0  61310-3 0  9995","line2":"2 64598  53.1584 145.2500 0000797  87.4623 272.6471 15.34405505 70671","mean_motion":15.34405505,"eccentricity":7.97e-5,"inclination_deg":53.1584,"raan_deg":145.25,"arg_perigee_deg":87.4623,"mean_anomaly_deg":272.6471,"bstar":0.0006131,"rev_number":7067,"period_min":93.847421382915,"perigee_km":462.1416645728,"apogee_km":463.23209189899,"semimajor_km":6840.8238782359,"source":"CELESTRAK","updated_at":"2026-09-21T09:00:35.364491Z"}}}